APRIZESAT 9

Last updated on Tue Sep 15 2026 00:03:48 GMT+0000 (Coordinated Universal Time)

1 40018U 14033J 26257.32273912 .00000416 00000+0 68787-4 0 9995 2 40018 97.9187 28.4083 0064623 273.8477 85.5345 14.74304826656691
UTC large
Height (km)
Speed (km/s)
/
Latitude / Longitude
Inclination (degrees)
Orbital Period (minutes)
Azimuth
Elevation
Range (km)
Doppler Factor

Next 0 passes for location: London (51.5072 / 0.1276)

No passes found over London.
APRIZESAT 9